Location: Bannatyne
(13.0833°N, 59.5333°W)
Time: 04:01:38
(UTC+00:00)

Tiros 1 despin weight - All Passes

Search period start: 21 January 2020 00:00
Search period end: 31 January 2020 00:00
Orbit: 593 x 643 km, 48.2° (Epoch: 20 January)

Date Brightness Start Highest point End Pass type
(mag) Time Alt. Az. Time Alt. Az. Time Alt. Az.
21 Jan - 01:05:54 10° NW 01:10:34 74° SW 01:15:12 10° SE night (unlit)
21 Jan - 13:21:18 10° S 13:24:28 19° SE 13:27:40 10° E daylight
21 Jan - 15:01:48 10° WSW 15:05:47 32° NW 15:09:51 10° NNE daylight
21 Jan - 23:41:41 10° N 23:45:34 25° NE 23:49:26 10° ESE visible
22 Jan - 01:23:02 10° WNW 01:27:00 28° SW 01:30:57 10° S night (unlit)
22 Jan - 13:36:35 10° SSW 13:40:53 51° SE 13:45:14 10° NE daylight
22 Jan - 15:20:13 10° WNW 15:22:31 14° NW 15:24:49 10° NNW daylight
22 Jan - 23:57:31 10° NNW 00:02:09 63° NE 00:06:46 10° SE visible
23 Jan - 01:42:28 10° WSW 01:43:25 11° SW 01:44:21 10° SW night (unlit)
23 Jan - 12:15:11 10° SE 12:16:08 11° SE 12:17:06 10° ESE daylight
23 Jan - 13:53:01 10° SW 13:57:21 56° NW 14:01:46 10° NNE daylight
23 Jan - 22:34:09 10° N 22:37:01 16° NE 22:39:52 10° E visible
24 Jan - 00:14:07 10° NW 00:18:38 48° SW 00:23:08 10° SSE visible
24 Jan - 12:28:44 10° S 12:32:32 28° SE 12:36:22 10° ENE daylight
24 Jan - 14:10:30 10° W 14:13:58 22° NW 14:17:29 10° N daylight
24 Jan - 22:49:22 10° NNW 22:53:42 36° NE 22:58:01 10° ESE visible
25 Jan - 00:31:46 10° W 00:35:03 19° SW 00:38:19 10° S visible
25 Jan - 12:44:34 10° SW 12:48:58 80° SE 12:53:26 10° NE daylight
25 Jan - 23:05:33 10° NW 23:10:14 86° SW 23:14:55 10° SE visible
26 Jan - 11:21:27 10° SSE 11:24:13 16° SE 11:26:59 10° E daylight
26 Jan - 13:01:25 10° WSW 13:05:30 37° NW 13:09:38 10° NNE daylight
26 Jan - 21:41:32 10° N 21:45:11 22° NE 21:48:51 10° E daylight
26 Jan - 23:22:30 10° WNW 23:26:41 32° SW 23:30:50 10° SSE visible
27 Jan - 11:36:26 10° SSW 11:40:37 43° SE 11:44:50 10° ENE daylight
27 Jan - 13:19:31 10° W 13:22:10 15° NW 13:24:51 10° N daylight
27 Jan - 21:57:13 10° NNW 22:01:48 54° NE 22:06:23 10° SE daylight
27 Jan - 23:41:05 10° WSW 23:43:05 13° SW 23:45:06 10° SSW visible
28 Jan - 11:52:43 10° SW 11:57:05 66° NW 12:01:29 10° NE daylight
28 Jan - 20:34:13 10° NNE 20:36:38 14° NE 20:39:02 10° ENE daylight
28 Jan - 22:13:42 10° NW 22:18:17 57° SW 22:22:53 10° SSE visible
29 Jan - 10:28:43 10° S 10:32:17 24° SE 10:35:52 10° ENE daylight
29 Jan - 12:10:01 10° WSW 12:13:40 25° NW 12:17:20 10° N daylight
29 Jan - 20:49:10 10° NNW 20:53:20 32° NE 20:57:30 10° ESE daylight
29 Jan - 22:31:08 10° WNW 22:34:43 22° SW 22:38:19 10° S visible
30 Jan - 10:44:21 10° SSW 10:48:42 68° SE 10:53:06 10° NE daylight
30 Jan - 12:29:29 10° NW 12:30:25 11° NW 12:31:20 10° NNW daylight
30 Jan - 21:05:13 10° NW 21:09:53 82° NE 21:14:34 10° SE daylight
